Wind_Speed
26 25 29 27 25 25 9 13 13 7 9 5 10 8 11 17 10 10 12 18 25 26 24 25 25 24 26 24 23 21 19 16 17 18 16 13 9 6 4 3 3 5 6 8
30 35 31 27 26 26 18 20 9 9 7 8 13 13 12 15 14 17 14 18 23 25 28 27 27 28 25 24 22 21 19 17 17 19 19 17 13 10 7 3 2 4 6 9
39 36 29 30 29 27 23 19 13 14 8 12 15 18 18 17 17 20 19 17 22 26 28 29 30 30 26 24 23 21 20 18 18 22 21 16 12 9 7 4 1 3 6 8
38 34 33 32 33 29 29 20 15 12 12 19 11 21 18 21 20 22 22 24 23 26 27 27 29 30 27 26 25 23 21 21 21 23 21 19 16 13 11 5 2 2 4 5
37 37 39 34 35 30 30 21 20 16 18 19 19 12 11 18 19 23 24 24 24 26 29 28 29 29 25 27 27 24 24 24 25 24 22 19 18 15 11 8 4 2 3 5
31 34 36 41 31 32 28 24 17 16 20 21 22 19 19 23 17 18 23 25 26 25 28 29 29 27 25 26 28 28 27 27 27 26 24 23 21 18 15 11 6 4 5 7
29 36 35 36 37 32 32 29 18 17 16 15 15 22 14 5 8 14 21 26 27 25 27 29 31 29 27 28 29 29 29 29 29 28 28 26 23 21 17 12 9 7 8 10
33 30 40 36 36 36 37 37 24 19 16 16 14 14 14 18 8 8 14 22 26 27 27 28 30 27 28 29 30 30 31 31 31 31 30 28 25 23 19 14 12 9 10 13
37 38 36 37 37 35 36 42 34 33 15 15 4 22 16 11 11 8 11 22 28 28 27 28 29 27 28 29 30 31 31 32 33 34 33 30 27 24 20 16 12 12 12 14
35 30 35 40 32 37 40 35 35 37 18 3 16 23 21 18 13 11 12 25 29 28 27 27 28 27 28 29 30 31 31 33 35 37 35 31 27 24 21 18 15 13 13 15
38 31 30 33 44 38 41 41 39 35 35 7 12 34 24 14 13 7 15 23 28 28 28 27 26 27 28 30 32 32 33 35 38 39 35 30 27 25 22 19 17 14 16 17
39 37 31 42 34 39 41 42 39 35 33 27 14 20 28 18 8 6 18 23 25 26 27 26 26 27 28 31 32 34 34 36 38 38 34 30 28 26 24 21 17 15 17 19
23 41 31 32 41 39 42 43 42 36 35 32 10 21 8 10 9 11 19 22 25 27 27 26 26 26 27 30 33 34 35 37 38 36 33 31 29 27 25 22 17 16 19 20
24 27 39 34 36 39 42 41 41 40 38 34 28 16 22 11 7 16 20 21 25 27 28 27 26 24 26 29 32 33 34 36 37 34 31 31 29 27 25 23 17 18 20 22
15 23 34 37 35 33 40 42 40 44 39 41 32 25 27 12 9 17 18 21 24 27 28 26 22 23 25 27 28 30 33 35 34 33 32 31 29 28 27 23 20 20 22 24
16 23 31 36 34 32 34 40 44 41 42 39 34 31 27 6 8 19 18 21 24 25 27 25 22 23 24 22 24 26 30 31 31 31 32 31 30 30 28 24 21 22 24 26
10 19 29 33 35 34 32 42 43 42 41 40 41 33 23 22 14 12 18 20 24 23 25 23 21 21 21 23 24 26 27 29 32 32 32 31 31 32 29 26 25 27 27 23
8 9 18 31 30 30 27 32 36 41 40 40 38 36 31 20 18 14 14 19 22 24 23 23 23 23 22 24 27 27 28 28 31 32 33 33 34 33 31 29 27 29 30 31
17 12 13 23 33 25 30 26 29 36 42 38 38 35 28 26 18 18 18 16 16 21 23 24 24 23 26 25 24 25 31 35 34 34 36 37 36 35 32 30 30 31 31 31
21 18 17 17 24 28 30 29 25 26 32 34 36 35 35 28 33 29 23 20 19 18 20 26 25 26 27 28 31 32 30 29 36 36 36 38 39 35 33 33 34 35 34 34
30 24 24 19 16 19 24 26 28 28 24 27 29 29 30 31 31 25 24 22 24 21 19 22 22 23 23 26 34 38 38 34 27 32 36 39 39 37 35 35 37 35 36 37
34 26 27 25 18 18 5 10 11 19 19 18 15 24 34 28 29 26 25 24 19 24 25 27 25 20 19 23 26 36 44 38 36 35 38 40 41 41 39 36 38 37 39 39
31 36 24 28 29 7 4 5 12 16 19 25 26 24 20 30 29 30 31 30 31 25 30 28 27 25 23 20 25 29 33 40 43 43 41 39 41 42 41 40 40 42 45 37
17 16 31 16 26 28 14 14 19 31 24 27 30 24 21 24 29 30 31 31 31 37 37 30 31 31 28 25 28 28 38 37 36 37 42 44 44 44 45 44 37 34 32 27
8 11 22 20 14 19 12 24 25 25 31 32 32 34 37 33 28 29 32 37 34 33 37 35 37 34 33 32 32 32 38 41 37 35 34 36 41 44 37 32 30 29 27 26
7 6 8 9 12 19 16 25 33 27 26 31 30 30 29 29 38 33 36 31 31 38 36 38 34 32 34 38 35 36 38 43 43 37 38 39 40 39 37 35 31 29 27 27
Wind_Direction
233 229 228 225 228 241 186 265 270 221 207 243 252 260 215 287 215 204 202 207 198 195 200 201 195 200 199 199 196 195 196 193 189 180 177 171 166 161 148 124 83 64 53 44
226 228 228 228 231 241 230 259 255 252 224 248 256 242 235 232 226 213 205 206 204 199 205 200 202 202 201 201 198 197 195 193 192 187 185 180 179 182 176 167 82 62 48 35
225 227 227 227 230 237 239 242 238 241 232 247 251 258 240 219 214 205 211 211 203 201 208 205 204 205 202 201 198 196 192 191 191 184 184 181 178 184 187 198 145 58 39 32
228 226 225 226 228 227 237 227 250 264 261 267 209 266 249 207 211 204 207 206 206 202 209 209 203 209 205 205 202 200 194 189 186 182 184 185 185 185 198 197 189 18 17 19
227 222 221 224 225 223 231 232 232 241 252 254 232 242 254 192 210 212 207 207 206 206 203 208 205 207 204 206 204 200 195 190 188 185 187 185 190 187 190 201 191 266 315 339
228 223 221 222 225 221 223 231 235 240 245 252 248 251 248 199 202 212 211 206 204 205 203 202 209 208 206 205 202 200 196 192 189 186 187 188 187 186 190 195 205 249 298 314
225 221 221 220 224 221 219 221 222 230 232 245 257 216 222 67 182 205 207 204 202 201 200 200 203 202 202 202 198 197 195 191 187 186 186 187 187 188 193 200 216 252 292 308
217 219 215 214 220 217 217 219 217 218 231 232 193 234 239 242 181 189 207 205 201 198 200 200 201 202 198 199 197 195 192 188 185 187 186 186 189 193 199 211 228 259 289 303
215 229 219 216 213 212 216 223 222 243 263 269 200 250 208 201 201 218 222 205 199 196 198 197 198 202 197 197 195 194 189 186 186 186 186 188 193 198 205 219 236 263 285 302
225 229 221 213 213 219 217 213 222 237 245 231 283 292 211 207 212 220 228 202 195 193 193 196 195 200 195 194 194 193 189 188 187 186 187 190 197 206 214 227 243 266 287 301
221 231 221 207 210 211 210 220 219 229 236 190 225 245 189 184 201 254 196 194 192 190 190 192 192 197 193 192 193 190 190 190 190 188 190 194 203 212 222 233 247 272 290 303
216 224 234 217 216 213 214 214 218 223 236 246 258 280 230 188 202 217 182 187 190 188 187 190 189 195 192 192 192 192 192 192 191 192 194 198 208 218 228 237 253 276 292 301
206 222 224 231 209 213 216 215 217 222 230 235 180 244 224 182 183 176 182 182 185 182 184 189 188 197 194 194 194 194 193 193 193 194 197 204 214 224 231 242 258 280 291 299
211 217 223 214 211 208 209 216 215 222 218 229 216 200 209 171 155 164 179 182 182 179 185 188 193 199 196 197 195 196 194 196 197 197 202 209 219 228 237 249 264 279 290 298
227 231 219 226 220 211 211 213 214 218 222 225 233 174 229 162 139 163 176 181 180 180 187 193 195 195 194 196 196 197 198 199 201 203 210 216 224 233 242 250 264 277 289 300
218 232 222 228 229 227 218 212 215 217 219 228 222 240 211 129 135 162 173 185 184 187 191 193 192 192 192 194 197 197 201 201 204 208 215 220 226 235 241 250 262 274 287 298
243 222 224 232 221 228 233 213 212 216 216 219 226 225 227 187 190 165 177 190 191 192 191 190 193 194 193 200 204 205 206 207 212 215 220 225 228 236 242 250 259 271 281 294
233 235 227 225 221 232 221 216 215 218 219 220 225 220 230 226 206 195 198 194 198 196 197 193 193 195 196 204 211 211 211 214 218 221 223 226 231 237 242 248 261 272 286 291
220 220 220 219 222 223 222 216 216 213 220 219 221 226 218 214 208 205 196 193 207 208 204 197 195 197 203 203 205 211 219 221 223 222 224 225 233 239 243 252 261 272 281 291
213 216 220 220 236 221 219 213 219 219 235 219 221 223 227 214 223 213 206 210 212 203 221 223 222 224 223 220 217 210 210 214 214 213 216 223 233 239 247 255 262 271 280 284
203 208 214 221 234 233 216 215 215 220 223 222 224 225 228 231 224 218 216 220 227 224 224 223 224 233 244 232 227 226 224 230 231 225 226 231 240 245 250 258 264 272 279 283
199 198 207 212 211 227 194 192 198 200 209 200 182 212 230 230 225 233 225 221 222 230 227 225 228 239 253 245 237 229 224 234 231 232 235 238 241 245 251 258 265 271 278 284
200 205 199 210 204 203 216 210 205 200 205 194 190 195 208 213 229 233 226 229 214 220 227 234 238 240 249 255 258 242 229 231 236 234 237 240 247 250 254 259 265 271 278 278
202 193 214 214 207 228 248 262 216 212 223 216 212 207 208 211 210 211 225 240 238 236 239 239 238 242 252 261 256 246 227 233 239 242 244 246 247 251 257 267 266 263 267 270
257 187 200 208 207 217 241 245 225 215 222 226 224 232 240 239 226 225 227 226 223 237 234 234 241 249 258 264 254 245 234 228 232 234 236 242 249 252 252 252 252 260 269 271
250 154 179 188 193 206 230 240 239 238 245 237 225 229 234 239 237 243 242 240 237 232 226 228 231 247 258 258 254 243 241 228 231 234 228 233 241 245 247 249 255 259 272 276
Height
3159 3162 3160 3161 3162 3156 3161 3160 3154 3156 3160 3164 3165 3166 3164 3165 3166 3165 3166 3168 3172 3177 3180 3181 3185 3189 3190 3193 3196 3200 3202 3205 3208 3211 3213 3215 3217 3218 3220 3220 3221 3221 3221 3220
3155 3150 3156 3159 3159 3158 3161 3157 3156 3157 3159 3163 3163 3162 3164 3161 3164 3165 3163 3165 3168 3172 3175 3177 3182 3185 3187 3190 3194 3198 3200 3204 3207 3210 3212 3214 3216 3219 3220 3221 3221 3222 3222 3221
3143 3147 3153 3155 3155 3156 3156 3155 3155 3158 3159 3161 3161 3159 3159 3159 3160 3164 3165 3164 3165 3169 3170 3173 3177 3181 3184 3188 3192 3196 3199 3203 3206 3209 3212 3214 3217 3219 3220 3221 3222 3222 3223 3223
3137 3144 3146 3148 3149 3152 3151 3154 3154 3155 3156 3153 3156 3149 3151 3153 3156 3157 3161 3163 3164 3167 3170 3169 3175 3177 3181 3186 3190 3194 3198 3201 3205 3208 3211 3213 3216 3218 3220 3221 3222 3223 3224 3224
3129 3136 3139 3141 3144 3148 3148 3151 3152 3155 3154 3152 3150 3147 3142 3147 3153 3154 3157 3160 3162 3164 3167 3170 3172 3174 3178 3183 3187 3192 3196 3200 3204 3207 3210 3213 3215 3218 3220 3221 3222 3224 3224 3224
3125 3130 3133 3135 3139 3143 3148 3149 3149 3151 3150 3144 3142 3142 3134 3137 3144 3150 3153 3156 3158 3161 3163 3168 3170 3172 3174 3179 3184 3189 3193 3198 3202 3206 3209 3212 3215 3217 3220 3221 3223 3224 3224 3224
3120 3120 3125 3130 3135 3139 3143 3144 3144 3145 3141 3136 3135 3137 3130 3132 3141 3143 3147 3151 3154 3158 3160 3162 3165 3166 3171 3176 3181 3186 3191 3196 3200 3204 3208 3211 3214 3217 3219 3221 3222 3224 3225 3225
3112 3114 3117 3122 3126 3132 3135 3136 3135 3136 3128 3125 3131 3131 3132 3132 3141 3141 3144 3148 3151 3154 3157 3159 3161 3164 3168 3173 3179 3184 3189 3194 3198 3202 3206 3210 3213 3216 3219 3220 3222 3224 3225 3225
3104 3104 3112 3117 3123 3128 3129 3129 3134 3129 3129 3129 3138 3130 3131 3134 3137 3139 3142 3144 3147 3150 3154 3156 3160 3162 3166 3171 3177 3182 3187 3192 3197 3201 3205 3209 3213 3215 3218 3220 3222 3223 3224 3224
3099 3100 3104 3110 3118 3121 3121 3129 3131 3126 3122 3137 3132 3127 3122 3127 3132 3135 3137 3141 3144 3147 3152 3154 3157 3160 3164 3169 3175 3180 3185 3191 3195 3199 3204 3208 3211 3215 3217 3219 3221 3222 3223 3223
3095 3096 3097 3102 3104 3110 3117 3117 3122 3124 3120 3124 3133 3132 3118 3124 3128 3131 3134 3138 3140 3143 3149 3151 3155 3158 3162 3167 3172 3178 3183 3188 3193 3198 3202 3207 3210 3213 3216 3218 3220 3221 3221 3221
3088 3093 3091 3091 3099 3106 3110 3113 3116 3117 3117 3115 3119 3115 3114 3117 3124 3128 3132 3135 3139 3142 3147 3150 3153 3157 3160 3164 3170 3176 3181 3186 3192 3197 3201 3205 3209 3212 3214 3216 3218 3219 3218 3218
3086 3082 3086 3087 3093 3098 3099 3106 3110 3113 3116 3113 3119 3126 3117 3119 3122 3125 3130 3133 3137 3141 3146 3149 3152 3155 3158 3163 3168 3174 3179 3185 3190 3195 3200 3203 3206 3209 3212 3213 3216 3216 3215 3214
3076 3077 3078 3076 3079 3089 3096 3099 3104 3107 3108 3109 3111 3121 3119 3119 3120 3123 3128 3132 3135 3138 3143 3146 3149 3153 3157 3162 3167 3173 3178 3183 3188 3193 3198 3201 3204 3207 3209 3210 3213 3213 3212 3211
3080 3079 3078 3076 3079 3083 3088 3095 3097 3100 3104 3105 3108 3109 3117 3118 3119 3123 3127 3131 3134 3137 3141 3144 3148 3152 3156 3161 3165 3171 3176 3181 3186 3191 3195 3199 3202 3205 3206 3207 3209 3209 3211 3211
3077 3077 3077 3075 3076 3077 3080 3086 3092 3096 3101 3102 3106 3105 3110 3115 3118 3122 3126 3130 3132 3136 3140 3144 3148 3152 3156 3160 3165 3169 3174 3180 3184 3189 3193 3196 3199 3201 3202 3204 3205 3206 3207 3207
3074 3076 3075 3072 3075 3075 3071 3074 3084 3091 3096 3100 3101 3108 3108 3112 3120 3121 3126 3129 3131 3135 3139 3143 3147 3151 3155 3160 3164 3168 3173 3178 3181 3185 3189 3192 3194 3196 3198 3200 3200 3201 3201 3203
3072 3072 3071 3070 3073 3063 3069 3076 3081 3087 3092 3095 3100 3104 3110 3112 3116 3121 3126 3129 3131 3135 3138 3142 3146 3150 3154 3159 3163 3168 3172 3175 3178 3181 3184 3187 3189 3192 3193 3195 3196 3196 3195 3195
3070 3072 3071 3069 3066 3070 3070 3073 3077 3081 3086 3092 3096 3099 3105 3113 3115 3120 3125 3129 3131 3134 3137 3141 3145 3149 3153 3156 3160 3164 3167 3171 3174 3176 3179 3182 3184 3186 3189 3190 3191 3191 3190 3190
3066 3069 3071 3068 3062 3058 3068 3073 3078 3081 3081 3088 3094 3098 3101 3109 3113 3116 3122 3126 3130 3133 3136 3139 3142 3146 3149 3153 3156 3159 3162 3166 3168 3171 3173 3176 3178 3182 3184 3185 3185 3184 3185 3186
3059 3064 3065 3067 3064 3060 3062 3069 3076 3077 3086 3086 3089 3093 3097 3100 3107 3114 3119 3122 3126 3128 3132 3135 3138 3140 3143 3147 3150 3153 3157 3159 3163 3166 3168 3171 3173 3176 3178 3178 3177 3179 3180 3179
3051 3056 3059 3065 3065 3062 3059 3063 3066 3070 3069 3076 3082 3090 3093 3098 3101 3106 3111 3116 3120 3124 3126 3129 3133 3136 3138 3139 3142 3144 3147 3152 3156 3159 3161 3163 3165 3168 3170 3172 3170 3173 3172 3172
3046 3049 3053 3058 3059 3060 3058 3057 3056 3060 3063 3068 3074 3078 3082 3089 3097 3101 3105 3110 3113 3115 3120 3123 3126 3129 3131 3133 3134 3136 3140 3144 3147 3150 3153 3156 3158 3162 3163 3164 3165 3166 3165 3165
3042 3045 3049 3054 3056 3059 3055 3053 3056 3061 3063 3067 3071 3075 3078 3081 3084 3089 3095 3101 3104 3108 3112 3116 3119 3121 3123 3126 3127 3129 3132 3136 3138 3142 3145 3148 3151 3154 3155 3157 3157 3158 3158 3159
3036 3041 3046 3049 3046 3049 3052 3051 3054 3057 3060 3062 3066 3069 3071 3075 3079 3082 3085 3087 3091 3097 3102 3107 3109 3112 3115 3117 3119 3121 3123 3127 3130 3134 3137 3140 3143 3145 3147 3149 3150 3150 3152 3152
3035 3037 3040 3038 3040 3044 3043 3044 3049 3053 3055 3054 3060 3064 3066 3068 3071 3074 3077 3080 3083 3088 3092 3095 3100 3103 3106 3108 3110 3113 3115 3118 3121 3125 3128 3132 3134 3136 3138 3140 3143 3144 3145 3145